Regional Weather Roundup
Issued by NWS

Home | Current Version | Previous Version | Text Only | Print | Product List | Glossary Off
Versions: 1 2 3 4 5 6 7 8 9 10 11 12 13 14 15 16 17 18 19 20 21 22 23 24 25 26 27 28 29 30 31 32 33 34 35 36 37 38 39 40 41 42 43 44 45 46 47 48 49 50

000
ASUS43 KFSD 282102
RWRSD

WEATHER ROUNDUP FOR SOUTH DAKOTA
NATIONAL WEATHER SERVICE SIOUX FALLS SD
400 PM CDT TUE JUL 28 2015

NOTE: "FAIR" INDICATES FEW OR NO CLOUDS BELOW 12,000 FEET WITH NO
SIGNIFICANT WEATHER AND/OR OBSTRUCTIONS TO VISIBILITY.


SDZ001>005-009-010-012>017-282200-
NORTHWEST AND NORTH CENTRAL SOUTH DAKOTA

CITY           SKY/WX    TMP DP  RH WIND       PRES   REMARKS
BUFFALO          N/A     69  42  37 W37G46    29.92S
FAITH            N/A     77  41  27 W30G46    29.96R
MOBRIDGE       MOSUNNY   77  50  38 W30G41    29.85R
$$

SDZ012>016-024>037-041>051-057-063-072>074-282200-
SOUTHWEST AND SOUTH CENTRAL SOUTH DAKOTA

CITY           SKY/WX    TMP DP  RH WIND       PRES   REMARKS
RAPID CTY ARPT MOSUNNY   75  43  31 W15G25    30.04R
PIERRE         SUNNY     83  44  25 W23G32    29.92S
CUSTER         MOSUNNY   66  35  31 W18G28    30.16R
ELLSWORTH AFB  PTSUNNY   76  42  29 W13       30.03R
PHILIP         SUNNY     81  45  28 W16G30    29.98R
PINE RIDGE     SUNNY     78  36  21 W16G29    30.07S
WINNER         FAIR      81  46  29 W17G30    29.99S
$$

SDZ004>011-016>023-039-040-282200-
NORTHEAST SOUTH DAKOTA

CITY           SKY/WX    TMP DP  RH WIND       PRES   REMARKS
ABERDEEN       SUNNY     80  52  37 W22G30    29.84R
WATERTOWN      SUNNY     77  56  48 W23G31    29.87S
BROOKINGS      SUNNY     75  57  53 W22G28    29.91R
SISSETON         N/A     79  56  45 W21G30    29.80R
$$

SDZ017-020-022-023-036>040-048>070-282200-
SOUTHEAST SOUTH DAKOTA

CITY           SKY/WX    TMP DP  RH WIND       PRES   REMARKS
SIOUX FALLS    MOSUNNY   79  58  48 NW14      29.91R
HURON          SUNNY     79  54  41 W20       29.90R
MITCHELL       SUNNY     81  52  36 W17G26    29.93R
YANKTON        SUNNY     79  57  47 MISG      29.92R
$$

ABBREVIATIONS USED IN REMARKS
   TC - TEMPERATURE IN CELSIUS
  WCI - WIND CHILL INDEX
   HX - HEAT INDEX
  VSB - VISIBILITY




USA.gov is the U.S. government's official web portal to all federal, state and local government web resources and services.